DECAYED
Showing default

LEMUR 2 THENICKMOLO, 43185 (Decayed)

Orbit data source: Space-Track

LEMUR 2 THENICKMOLO, 43185 was a payload satellite owned by Spire (US) in LEO that was launched on Thu, 01 Feb 2018 UTC via a SOYUZ-2-1A launch vehicle from the Vostochny Cosmodrome (VOSTO). Payload-class satellites include a variety of spacecraft equipped with specific instruments for various scientific and technological missions. These include communications satellites like Starlink; space stations such as the ISS; scientific satellites like the Hubble; Earth observation satellites from companies like Planet Labs, Umbra, and HawkEye 360; GPS; miniature CubeSats for education and research; and military/defense satellites.

Not visible in the next 10 days
Identifier
43185, 2018-014F
Orbit
Decayed
Country
Flag of USUS
Related business
Manufacturer
Spire/Glasgow
Mission
Decayed Commercial Com/MetRO
Bus & Motor
CUBESAT 3U, Unknown motor
Mass
4.6 kg wet, 4.6 kg dry
Launch date (UTC)
2018-02-01 (8 years ago)
Launch vehicle
SOYUZ-2-1A
Launch site
Vostochny Cosmodrome (VOSTO)
Object type
Payload
Rocket body
Debris
Shape & HBR
Box + 2 Pan, 0.5 m
Radar Cross Section
0.124 m², Medium (>0.1 m² and < 1m²)

Expand to show TLE details & history
Last TLE update: 8 months ago

TLE from 8 months ago
0 LEMUR 2 THENICKMOLO
1 43185U 18014F   25269.50172611  .04547370  25472-5  20076-2 0  9994
2 43185  97.5432 195.5657 0009716 179.6303 180.4995 16.22292076420585
Epoch: 2025-09-26T12:02Z
TLE epoch observation values (Epoch: 2025-09-26T12:02:29.135Z)
Latitude
-0.00011°
Longitude
9.39673°
Altitude
222.965 km
Speed
7.769 km/s
True Right ascension
13h 02m 15s
True Declination
0° 00' 00"
Sunlit
Object was in daylight at epoch
Visualization orbit readout
Latitude
Unknown
Longitude
Unknown
Altitude
Unknown
Speed
Unknown
Apparent Right ascension
Unknown
Apparent Declination
Unknown
Sunlit
N/A
Visualization observer readout
Local Sidereal Time
16:49:41
Azimuth
Unknown
Elevation
Unknown
Doppler factor
Unknown
Orbital elements
Apogee altitude
216.574 km
Perigee altitude
203.772 km
Semi-major axis
6,588.31 km
Eccentricity
0.00097
Inclination
97.5432°
RAAN
195.5657°
Arg. of periapsis
179.6303°
True anomaly
180.49853°
Mean anomaly
180.4995°
Eccentric anomaly
180.49902°
Mean motion
4.05865 °/min
Orbital period
88.7 mins
BSTAR
0.0020076
Loading maneuver chart data...
Computing Atmospheric mass density...
Loading historical data...
Loading historical data...
Loading historical data...
Loading historical data...
Loading historical data...
Loading historical data...
Loading historical data...

Documentation

Showing up to 5 results
|